Jaipur, India

3:04 PM IST on May 28, 2017 (GMT +0530)
Jaipur

Weather History for VIJP - January, 2014

Change the Weather History Date:

Thursday, January 16, 2014

  Actual Average Record
Temperature  
Mean Temperature 54 °F -  
Max Temperature 68 °F - - ()
Min Temperature 41 °F - - ()
Degree Days  
Heating Degree Days 10    
Growing Degree Days 4 (Base 50)    
Moisture  
Dew Point 45 °F    
Average Humidity 73    
Maximum Humidity 100    
Minimum Humidity 36    
Precipitation  
Precipitation 0.00 in - - ()
Sea Level Pressure  
Sea Level Pressure 30.10 in    
Wind  
Wind Speed 2 mph ()    
Max Wind Speed 6 mph    
Max Gust Speed -    
Visibility 1.0 miles    
Events Fog    
T = Trace of Precipitation, MM = Missing Value Source: Averaged Metar Reports

Daily Weather History Graph

Daily Weather History Graph

Search for Another Location

Airport or City:

Trip Planner

Search our weather history database for the weather conditions in past years. The results will help you decide how hot, cold, wet, or windy it might be!

Date:

Astronomy

Jan. 16, 2014 Rise Set
Actual Time 7:17 AM IST 5:56 PM IST
Civil Twilight 6:52 AM IST 6:21 PM IST
Nautical Twilight 6:23 AM IST 6:49 PM IST
Astronomical Twilight 5:55 AM IST 7:17 PM IST
Moon 6:15 PM IST (1/16) 6:59 AM IST (1/16)
Length of Visible Light 11h 28m
Length of Day
10h 39m
Full, 100% of the Moon is Illuminated
Jan 16
Full
Jan 24
Last Quarter
Jan 31
New
Feb 7
First Quarter
Feb 15
Full

Hourly Weather History & Observations

Time (IST) Temp. Windchill Dew Point Humidity Pressure Visibility Wind Dir Wind Speed Gust Speed Precip Events Conditions
1:00 AM 48.2 °F - 48.2 °F 100% 30.12 in 0.1 mi Calm Calm - N/A Fog Fog
2:00 AM 48.2 °F - 48.2 °F 100% 30.12 in 0.1 mi Calm Calm - N/A Fog Fog
2:30 AM 45 °F - 45 °F 100% 30.14 in 0 mi Calm Calm - - Fog Partial Fog
5:00 AM 44.6 °F 43.1 °F 44.6 °F 100% 30.09 in - Variable 3.5 mph - N/A Fog Fog
5:30 AM 45 °F - 45 °F 100% 30.16 in 0 mi Calm Calm - - Fog Heavy Fog
6:00 AM 44.6 °F - 44.6 °F 100% 30.12 in - Calm Calm - N/A Fog Fog
7:00 AM 44.6 °F - 44.6 °F 100% 30.12 in - Calm Calm - N/A Fog Fog
8:00 AM 42.8 °F - 42.8 °F 100% 30.12 in - Variable 1.2 mph - N/A Fog Fog
8:30 AM 44 °F - 44 °F 99% 30.16 in 0 mi Calm Calm - - Fog Heavy Fog
9:00 AM 44.6 °F - 44.6 °F 100% 30.15 in - Calm Calm - N/A Fog Fog
11:00 AM 50.0 °F - 50.0 °F 100% 30.18 in 0.6 mi WSW 3.5 mph - N/A Fog Shallow Fog
11:30 AM 54 °F - 53 °F 95% 30.17 in 1 mi SW 4.6 mph - -   Mist
1:00 PM 60.8 °F - 46.4 °F 59% 30.12 in 1.1 mi SW 5.8 mph - N/A   Smoke
2:00 PM 64.4 °F - 44.6 °F 49% 30.09 in 1.2 mi SSW 4.6 mph - N/A   Smoke
2:30 PM 66 °F - 45 °F 36% 30.05 in 1 mi SSE 3.5 mph - -   Smoke
2:30 PM 66.2 °F - 42.8 °F 43% 30.06 in 1.6 mi South 3.5 mph - N/A   Smoke
3:00 PM 66.2 °F - 42.8 °F 43% 30.06 in 1.6 mi SSE 5.8 mph - N/A   Smoke
3:30 PM 66.2 °F - 42.8 °F 43% 30.06 in 1.6 mi South 4.6 mph - N/A   Smoke
4:30 PM 66.2 °F - 44.6 °F 46% 30.06 in 1.9 mi SSE 5.8 mph - N/A   Haze
5:00 PM 64.4 °F - 42.8 °F 45% 30.06 in 1.9 mi SSE 4.6 mph - N/A   Haze
5:30 PM 63 °F - 45 °F 40% 30.03 in 1 mi SE 3.5 mph - -   Haze
5:30 PM 64.4 °F - 44.6 °F 49% 30.06 in 1.9 mi SE 3.5 mph - N/A   Haze
6:00 PM 62.6 °F - 42.8 °F 48% 30.06 in 1.9 mi Variable 3.5 mph - N/A   Haze
6:30 PM 59.0 °F - 42.8 °F 55% 30.06 in 1.6 mi Calm Calm - N/A   Smoke
7:00 PM 57.2 °F - 44.6 °F 63% 30.06 in 1.1 mi Calm Calm - N/A   Smoke
8:00 PM 59.0 °F - 44.6 °F 59% 30.09 in 0.7 mi Variable 2.3 mph - N/A   Smoke
8:30 PM 55 °F - 46 °F 64% 30.08 in 1 mi East 2.3 mph - -   Smoke
9:00 PM 55.4 °F - 46.4 °F 72% 30.09 in 0.7 mi Variable 1.2 mph - N/A   Smoke
10:00 PM 51.8 °F - 46.4 °F 82% 30.09 in 0.7 mi Variable 1.2 mph - N/A   Mist
11:30 PM 50 °F - 47 °F 86% 30.10 in 0 mi East 3.5 mph - - Fog Shallow Fog